Time,TemperatureF,DewpointF,PressureIn,WindDirection,WindDirectionDegrees,WindSpeedMPH,WindSpeedGustMPH,Humidity,HourlyPrecipIn,Conditions,Clouds,dailyrainin,SoftwareType,DateUTC
2013-01-30 00:03:00,28.5,26.7,29.72,WNW,303,4.0,12.0,93,0.00,,,0.00,VWS V14.00,2013-01-30 06:03:00,
2013-01-30 00:08:00,28.5,26.7,29.73,NNW,331,2.0,9.0,93,0.00,,,0.00,VWS V14.00,2013-01-30 06:08:00,
2013-01-30 00:13:00,28.8,27.0,29.73,NW,305,5.0,13.0,93,0.00,,,0.00,VWS V14.00,2013-01-30 06:13:00,
2013-01-30 00:18:00,28.7,26.9,29.73,North,355,4.0,13.0,93,0.00,,,0.00,VWS V14.00,2013-01-30 06:18:00,
2013-01-30 00:23:00,28.4,26.6,29.73,NW,321,4.0,13.0,93,0.00,,,0.00,VWS V14.00,2013-01-30 06:23:00,
2013-01-30 00:28:00,28.1,26.3,29.73,NW,315,3.0,13.0,93,0.00,,,0.00,VWS V14.00,2013-01-30 06:28:00,
2013-01-30 00:33:00,28.3,26.5,29.73,NNW,329,3.0,14.0,93,0.00,,,0.00,VWS V14.00,2013-01-30 06:33:00,
2013-01-30 00:37:00,28.1,26.3,29.73,NW,304,1.0,11.0,93,0.00,,,0.00,VWS V14.00,2013-01-30 06:37:00,
2013-01-30 00:42:00,27.8,26.0,29.73,NNW,347,2.0,11.0,93,0.00,,,0.00,VWS V14.00,2013-01-30 06:42:00,
2013-01-30 00:47:00,27.6,25.8,29.73,NW,308,2.0,17.0,93,0.00,,,0.00,VWS V14.00,2013-01-30 06:47:00,
2013-01-30 00:52:00,27.7,25.9,29.73,NW,317,10.0,19.0,93,0.00,,,0.00,VWS V14.00,2013-01-30 06:52:00,
2013-01-30 00:57:00,27.2,25.5,29.73,NNW,336,4.0,19.0,93,0.00,,,0.00,VWS V14.00,2013-01-30 06:57:00,
2013-01-30 01:02:00,26.8,24.8,29.73,NNW,345,6.0,19.0,92,0.00,,,0.00,VWS V14.00,2013-01-30 07:02:00,
2013-01-30 01:07:00,26.6,24.9,29.73,NNW,340,9.0,13.0,93,0.00,,,0.00,VWS V14.00,2013-01-30 07:07:00,
2013-01-30 01:12:00,26.6,24.6,29.73,North,5,6.0,13.0,92,0.00,,,0.00,VWS V14.00,2013-01-30 07:12:00,
2013-01-30 01:17:00,26.5,24.5,29.73,WNW,296,4.0,14.0,92,0.00,,,0.00,VWS V14.00,2013-01-30 07:17:00,
2013-01-30 01:22:00,26.1,24.1,29.73,North,355,3.0,16.0,92,0.00,,,0.00,VWS V14.00,2013-01-30 07:22:00,
2013-01-30 01:27:00,25.7,23.7,29.74,NNW,327,0.0,16.0,92,0.00,,,0.00,VWS V14.00,2013-01-30 07:27:00,
2013-01-30 01:32:00,25.3,23.3,29.74,WNW,300,0.0,21.0,92,0.00,,,0.00,VWS V14.00,2013-01-30 07:32:00,
2013-01-30 01:37:00,25.3,23.3,29.75,NNW,344,11.0,13.0,92,0.00,,,0.00,VWS V14.00,2013-01-30 07:37:00,
2013-01-30 01:42:00,24.8,22.8,29.75,NW,313,1.0,17.0,92,0.00,,,0.00,VWS V14.00,2013-01-30 07:42:00,
2013-01-30 01:47:00,24.1,22.1,29.75,West,269,1.0,20.0,92,0.00,,,0.00,VWS V14.00,2013-01-30 07:47:00,
2013-01-30 01:52:00,23.7,21.7,29.75,NNW,335,9.0,20.0,92,0.00,,,0.00,VWS V14.00,2013-01-30 07:52:00,
2013-01-30 01:57:00,23.6,21.6,29.75,NNW,347,7.0,20.0,92,0.00,,,0.00,VWS V14.00,2013-01-30 07:57:00,
2013-01-30 02:02:00,23.4,21.4,29.75,NW,316,11.0,20.0,92,0.00,,,0.00,VWS V14.00,2013-01-30 08:02:00,
2013-01-30 02:07:00,23.2,21.2,29.75,NW,311,0.0,13.0,92,0.00,,,0.00,VWS V14.00,2013-01-30 08:07:00,
2013-01-30 02:12:00,23.0,21.0,29.76,WNW,300,11.0,20.0,92,0.00,,,0.00,VWS V14.00,2013-01-30 08:12:00,
2013-01-30 02:17:00,23.1,21.1,29.76,West,281,5.0,20.0,92,0.00,,,0.00,VWS V14.00,2013-01-30 08:17:00,
2013-01-30 02:22:00,23.0,21.0,29.76,West,275,0.0,20.0,92,0.00,,,0.00,VWS V14.00,2013-01-30 08:22:00,
2013-01-30 02:27:00,22.8,20.8,29.77,NNW,329,0.0,21.0,92,0.00,,,0.00,VWS V14.00,2013-01-30 08:27:00,
2013-01-30 02:32:00,22.7,20.7,29.77,NNW,341,15.0,21.0,92,0.00,,,0.00,VWS V14.00,2013-01-30 08:32:00,
2013-01-30 02:37:00,23.1,21.1,29.77,NW,311,17.0,17.0,92,0.00,,,0.00,VWS V14.00,2013-01-30 08:37:00,
2013-01-30 02:42:00,23.0,21.0,29.78,NNW,334,12.0,18.0,92,0.00,,,0.00,VWS V14.00,2013-01-30 08:42:00,
2013-01-30 02:47:00,22.7,20.7,29.78,NW,323,9.0,19.0,92,0.00,,,0.00,VWS V14.00,2013-01-30 08:47:00,
2013-01-30 02:52:00,22.5,20.5,29.78,NW,312,4.0,19.0,92,0.00,,,0.00,VWS V14.00,2013-01-30 08:52:00,
2013-01-30 02:57:00,22.9,20.9,29.79,NNW,332,4.0,19.0,92,0.00,,,0.00,VWS V14.00,2013-01-30 08:57:00,
2013-01-30 03:02:00,22.8,20.8,29.79,NW,311,6.0,19.0,92,0.00,,,0.00,VWS V14.00,2013-01-30 09:02:00,
2013-01-30 03:07:00,22.5,20.5,29.79,North,355,9.0,20.0,92,0.00,,,0.00,VWS V14.00,2013-01-30 09:07:00,
2013-01-30 03:12:00,22.4,20.4,29.80,WNW,286,13.0,20.0,92,0.00,,,0.00,VWS V14.00,2013-01-30 09:12:00,
2013-01-30 03:17:00,22.6,20.6,29.80,West,275,15.0,20.0,92,0.00,,,0.00,VWS V14.00,2013-01-30 09:17:00,
2013-01-30 03:22:00,22.4,20.4,29.80,NNW,330,17.0,20.0,92,0.00,,,0.00,VWS V14.00,2013-01-30 09:22:00,
2013-01-30 03:27:00,22.1,19.9,29.81,NNE,20,8.0,20.0,91,0.00,,,0.00,VWS V14.00,2013-01-30 09:27:00,
2013-01-30 03:32:00,22.1,20.1,29.81,NE,40,5.0,20.0,92,0.00,,,0.00,VWS V14.00,2013-01-30 09:32:00,
2013-01-30 03:37:00,22.4,20.4,29.81,NW,314,11.0,11.0,92,0.00,,,0.00,VWS V14.00,2013-01-30 09:37:00,
2013-01-30 03:42:00,22.2,20.2,29.81,WNW,291,8.0,16.0,92,0.00,,,0.00,VWS V14.00,2013-01-30 09:42:00,
2013-01-30 03:47:00,21.8,19.6,29.80,NNW,334,12.0,19.0,91,0.00,,,0.00,VWS V14.00,2013-01-30 09:47:00,
2013-01-30 03:52:00,21.8,19.8,29.81,WNW,302,8.0,19.0,92,0.00,,,0.00,VWS V14.00,2013-01-30 09:52:00,
2013-01-30 03:57:00,21.5,19.3,29.81,WNW,286,10.0,19.0,91,0.00,,,0.00,VWS V14.00,2013-01-30 09:57:00,
2013-01-30 04:02:00,21.2,19.0,29.81,NW,311,11.0,19.0,91,0.00,,,0.00,VWS V14.00,2013-01-30 10:02:00,
2013-01-30 04:07:00,21.0,18.8,29.81,North,360,5.0,13.0,91,0.00,,,0.00,VWS V14.00,2013-01-30 10:07:00,
2013-01-30 04:12:00,21.4,19.4,29.81,NNW,337,5.0,18.0,92,0.00,,,0.00,VWS V14.00,2013-01-30 10:12:00,
2013-01-30 04:17:00,21.3,19.3,29.81,WNW,303,8.0,18.0,92,0.00,,,0.00,VWS V14.00,2013-01-30 10:17:00,
2013-01-30 04:22:00,21.1,18.9,29.81,NW,319,10.0,21.0,91,0.00,,,0.00,VWS V14.00,2013-01-30 10:22:00,
2013-01-30 04:27:00,21.0,18.8,29.81,NNW,328,6.0,21.0,91,0.00,,,0.00,VWS V14.00,2013-01-30 10:27:00,
2013-01-30 04:32:00,21.5,19.5,29.81,NW,314,10.0,21.0,92,0.00,,,0.00,VWS V14.00,2013-01-30 10:32:00,
2013-01-30 04:37:00,21.4,19.4,29.81,NW,315,4.0,18.0,92,0.00,,,0.00,VWS V14.00,2013-01-30 10:37:00,
2013-01-30 04:42:00,21.2,19.0,29.81,WNW,284,13.0,18.0,91,0.00,,,0.00,VWS V14.00,2013-01-30 10:42:00,
2013-01-30 04:47:00,21.2,19.0,29.81,NW,310,11.0,19.0,91,0.00,,,0.00,VWS V14.00,2013-01-30 10:47:00,
2013-01-30 04:52:00,21.5,19.5,29.82,NW,315,6.0,20.0,92,0.00,,,0.00,VWS V14.00,2013-01-30 10:52:00,
2013-01-30 04:57:00,21.2,19.0,29.82,NW,310,11.0,23.0,91,0.00,,,0.00,VWS V14.00,2013-01-30 10:57:00,
2013-01-30 05:02:00,20.9,18.7,29.82,NNW,331,16.0,23.0,91,0.00,,,0.00,VWS V14.00,2013-01-30 11:02:00,
2013-01-30 05:07:00,20.8,18.6,29.82,NW,317,11.0,14.0,91,0.00,,,0.00,VWS V14.00,2013-01-30 11:07:00,
2013-01-30 05:12:00,21.1,18.9,29.83,NW,323,9.0,18.0,91,0.00,,,0.00,VWS V14.00,2013-01-30 11:12:00,
2013-01-30 05:17:00,20.8,18.6,29.83,WNW,296,11.0,21.0,91,0.00,,,0.00,VWS V14.00,2013-01-30 11:17:00,
2013-01-30 05:22:00,20.6,18.4,29.83,NW,310,8.0,21.0,91,0.00,,,0.00,VWS V14.00,2013-01-30 11:22:00,
2013-01-30 05:27:00,20.6,18.4,29.83,West,278,9.0,22.0,91,0.00,,,0.00,VWS V14.00,2013-01-30 11:27:00,
2013-01-30 05:32:00,20.8,18.6,29.83,West,280,10.0,23.0,91,0.00,,,0.00,VWS V14.00,2013-01-30 11:32:00,
2013-01-30 05:37:00,20.5,18.3,29.83,WNW,292,9.0,21.0,91,0.00,,,0.00,VWS V14.00,2013-01-30 11:37:00,
2013-01-30 05:42:00,20.2,17.7,29.83,NW,323,11.0,21.0,90,0.00,,,0.00,VWS V14.00,2013-01-30 11:42:00,
2013-01-30 05:47:00,20.1,17.6,29.83,WNW,292,11.0,21.0,90,0.00,,,0.00,VWS V14.00,2013-01-30 11:47:00,
2013-01-30 05:52:00,20.2,17.7,29.83,WNW,286,11.0,23.0,90,0.00,,,0.00,VWS V14.00,2013-01-30 11:52:00,
2013-01-30 05:57:00,20.0,17.5,29.83,WNW,284,6.0,23.0,90,0.00,,,0.00,VWS V14.00,2013-01-30 11:57:00,
2013-01-30 06:02:00,19.9,17.5,29.83,NW,323,20.0,23.0,90,0.00,,,0.00,VWS V14.00,2013-01-30 12:02:00,
2013-01-30 06:06:00,20.1,17.6,29.84,NW,323,5.0,18.0,90,0.00,,,0.00,VWS V14.00,2013-01-30 12:06:00,
2013-01-30 06:11:00,20.5,18.3,29.84,NNW,344,9.0,18.0,91,0.00,,,0.00,VWS V14.00,2013-01-30 12:11:00,
2013-01-30 06:16:00,20.2,17.7,29.84,WNW,292,7.0,19.0,90,0.00,,,0.00,VWS V14.00,2013-01-30 12:16:00,
2013-01-30 06:21:00,20.4,17.9,29.84,NW,325,19.0,22.0,90,0.00,,,0.00,VWS V14.00,2013-01-30 12:21:00,
2013-01-30 06:26:00,20.3,17.8,29.84,NNW,342,0.0,22.0,90,0.00,,,0.00,VWS V14.00,2013-01-30 12:26:00,
2013-01-30 06:31:00,20.2,17.7,29.85,NNW,336,12.0,23.0,90,0.00,,,0.00,VWS V14.00,2013-01-30 12:31:00,
2013-01-30 06:36:00,20.6,18.1,29.85,WNW,298,15.0,21.0,90,0.00,,,0.00,VWS V14.00,2013-01-30 12:36:00,
2013-01-30 06:41:00,20.4,17.9,29.85,WNW,286,5.0,21.0,90,0.00,,,0.00,VWS V14.00,2013-01-30 12:41:00,
2013-01-30 06:46:00,20.3,17.6,29.85,NW,325,10.0,25.0,89,0.00,,,0.00,VWS V14.00,2013-01-30 12:46:00,
2013-01-30 06:51:00,20.5,18.0,29.86,WNW,288,11.0,25.0,90,0.00,,,0.00,VWS V14.00,2013-01-30 12:51:00,
2013-01-30 06:56:00,20.2,17.5,29.86,WNW,296,11.0,25.0,89,0.00,,,0.00,VWS V14.00,2013-01-30 12:56:00,
2013-01-30 07:01:00,20.2,17.5,29.87,NW,304,9.0,25.0,89,0.00,,,0.00,VWS V14.00,2013-01-30 13:01:00,
2013-01-30 07:06:00,20.2,17.5,29.87,North,10,5.0,15.0,89,0.00,,,0.00,VWS V14.00,2013-01-30 13:06:00,
2013-01-30 07:11:00,20.1,17.4,29.87,NW,308,7.0,18.0,89,0.00,,,0.00,VWS V14.00,2013-01-30 13:11:00,
2013-01-30 07:16:00,20.6,18.1,29.87,WNW,288,11.0,19.0,90,0.00,,,0.00,VWS V14.00,2013-01-30 13:16:00,
2013-01-30 07:21:00,20.3,17.6,29.87,WSW,258,21.0,21.0,89,0.00,,,0.00,VWS V14.00,2013-01-30 13:21:00,
2013-01-30 07:26:00,20.2,17.5,29.88,North,355,5.0,21.0,89,0.00,,,0.00,VWS V14.00,2013-01-30 13:26:00,
2013-01-30 07:31:00,20.6,18.1,29.88,NW,310,14.0,21.0,90,0.00,,,0.00,VWS V14.00,2013-01-30 13:31:00,
2013-01-30 07:36:00,20.3,17.6,29.88,NNW,338,15.0,15.0,89,0.00,,,0.00,VWS V14.00,2013-01-30 13:36:00,
2013-01-30 07:41:00,20.1,17.4,29.89,NW,311,4.0,19.0,89,0.00,,,0.00,VWS V14.00,2013-01-30 13:41:00,
2013-01-30 07:46:00,20.5,18.0,29.89,NNW,333,14.0,20.0,90,0.00,,,0.00,VWS V14.00,2013-01-30 13:46:00,
2013-01-30 07:51:00,20.4,17.7,29.89,NNW,337,10.0,20.0,89,0.00,,,0.00,VWS V14.00,2013-01-30 13:51:00,
2013-01-30 07:56:00,20.4,17.7,29.89,NW,304,5.0,20.0,89,0.00,,,0.00,VWS V14.00,2013-01-30 13:56:00,
2013-01-30 08:01:00,20.6,17.9,29.89,NW,313,11.0,20.0,89,0.00,,,0.00,VWS V14.00,2013-01-30 14:01:00,
2013-01-30 08:06:00,20.4,17.7,29.90,WNW,286,8.0,12.0,89,0.00,,,0.00,VWS V14.00,2013-01-30 14:06:00,
2013-01-30 08:11:00,20.5,17.8,29.90,WNW,288,8.0,20.0,89,0.00,,,0.00,VWS V14.00,2013-01-30 14:11:00,
2013-01-30 08:16:00,20.9,18.2,29.90,WNW,299,10.0,20.0,89,0.00,,,0.00,VWS V14.00,2013-01-30 14:16:00,
2013-01-30 08:21:00,20.6,17.6,29.90,WNW,287,12.0,21.0,88,0.00,,,0.00,VWS V14.00,2013-01-30 14:21:00,
2013-01-30 08:26:00,20.7,18.0,29.90,NNW,346,13.0,21.0,89,0.00,,,0.00,VWS V14.00,2013-01-30 14:26:00,
2013-01-30 08:31:00,20.8,18.1,29.90,NNW,333,6.0,21.0,89,0.00,,,0.00,VWS V14.00,2013-01-30 14:31:00,
2013-01-30 08:36:00,20.3,17.1,29.90,NNW,346,17.0,17.0,87,0.00,,,0.00,VWS V14.00,2013-01-30 14:36:00,
2013-01-30 08:41:00,20.4,17.4,29.91,NW,310,5.0,20.0,88,0.00,,,0.00,VWS V14.00,2013-01-30 14:41:00,
2013-01-30 08:46:00,20.1,16.9,29.91,WNW,286,11.0,24.0,87,0.00,,,0.00,VWS V14.00,2013-01-30 14:46:00,
2013-01-30 08:51:00,19.9,16.4,29.91,WNW,298,6.0,24.0,86,0.00,,,0.00,VWS V14.00,2013-01-30 14:51:00,
2013-01-30 08:56:00,20.3,17.1,29.91,NW,311,10.0,24.0,87,0.00,,,0.00,VWS V14.00,2013-01-30 14:56:00,
2013-01-30 09:01:00,20.2,16.7,29.91,NW,307,7.0,24.0,86,0.00,,,0.00,VWS V14.00,2013-01-30 15:01:00,
2013-01-30 09:06:00,20.4,17.2,29.91,NNW,327,3.0,11.0,87,0.00,,,0.00,VWS V14.00,2013-01-30 15:06:00,
2013-01-30 09:11:00,20.7,17.5,29.91,NW,322,7.0,16.0,87,0.00,,,0.00,VWS V14.00,2013-01-30 15:11:00,
2013-01-30 09:16:00,20.6,17.1,29.91,WNW,290,10.0,16.0,86,0.00,,,0.00,VWS V14.00,2013-01-30 15:16:00,
2013-01-30 09:21:00,20.7,17.2,29.91,NW,309,9.0,16.0,86,0.00,,,0.00,VWS V14.00,2013-01-30 15:21:00,
2013-01-30 09:26:00,20.7,16.9,29.91,WNW,300,3.0,16.0,85,0.00,,,0.00,VWS V14.00,2013-01-30 15:26:00,
2013-01-30 09:31:00,20.5,16.4,29.92,NNW,346,10.0,16.0,84,0.00,,,0.00,VWS V14.00,2013-01-30 15:31:00,
2013-01-30 09:36:00,20.8,17.3,29.92,NNW,333,0.0,12.0,86,0.00,,,0.00,VWS V14.00,2013-01-30 15:36:00,
2013-01-30 09:41:00,20.9,17.1,29.91,NW,315,9.0,18.0,85,0.00,,,0.00,VWS V14.00,2013-01-30 15:41:00,
2013-01-30 09:46:00,20.8,16.7,29.91,North,355,12.0,21.0,84,0.00,,,0.00,VWS V14.00,2013-01-30 15:46:00,
2013-01-30 09:51:00,21.2,17.4,29.91,NNW,345,8.0,21.0,85,0.00,,,0.00,VWS V14.00,2013-01-30 15:51:00,
2013-01-30 09:56:00,21.1,17.0,29.92,NNW,333,17.0,21.0,84,0.00,,,0.00,VWS V14.00,2013-01-30 15:56:00,
2013-01-30 10:01:00,20.9,16.6,29.92,NW,311,0.0,24.0,83,0.00,,,0.00,VWS V14.00,2013-01-30 16:01:00,
2013-01-30 10:06:00,21.3,17.2,29.92,West,280,14.0,21.0,84,0.00,,,0.00,VWS V14.00,2013-01-30 16:06:00,
2013-01-30 10:11:00,20.9,16.3,29.92,NNW,330,7.0,24.0,82,0.00,,,0.00,VWS V14.00,2013-01-30 16:11:00,
2013-01-30 10:16:00,20.8,16.5,29.92,NNW,335,9.0,24.0,83,0.00,,,0.00,VWS V14.00,2013-01-30 16:16:00,
2013-01-30 10:21:00,21.4,17.6,29.92,NNW,338,9.0,24.0,85,0.00,,,0.00,VWS V14.00,2013-01-30 16:21:00,
2013-01-30 10:26:00,21.0,16.7,29.93,North,355,9.0,24.0,83,0.00,,,0.00,VWS V14.00,2013-01-30 16:26:00,
2013-01-30 10:31:00,21.0,16.7,29.93,NNW,338,10.0,24.0,83,0.00,,,0.00,VWS V14.00,2013-01-30 16:31:00,
2013-01-30 10:36:00,21.2,17.1,29.93,NW,326,8.0,16.0,84,0.00,,,0.00,VWS V14.00,2013-01-30 16:36:00,
2013-01-30 10:41:00,21.1,17.0,29.94,NW,305,4.0,16.0,84,0.00,,,0.00,VWS V14.00,2013-01-30 16:41:00,
2013-01-30 10:46:00,20.9,16.6,29.94,NW,321,7.0,17.0,83,0.00,,,0.00,VWS V14.00,2013-01-30 16:46:00,
2013-01-30 10:51:00,21.2,17.1,29.94,NNW,348,0.0,17.0,84,0.00,,,0.00,VWS V14.00,2013-01-30 16:51:00,
2013-01-30 10:56:00,21.3,17.0,29.94,NNW,346,5.0,17.0,83,0.00,,,0.00,VWS V14.00,2013-01-30 16:56:00,
2013-01-30 11:01:00,21.2,16.3,29.94,NNW,334,10.0,18.0,81,0.00,,,0.00,VWS V14.00,2013-01-30 17:01:00,
2013-01-30 11:06:00,21.4,16.8,29.94,NNW,337,12.0,12.0,82,0.00,,,0.00,VWS V14.00,2013-01-30 17:06:00,
2013-01-30 11:11:00,21.5,16.3,29.94,North,355,12.0,20.0,80,0.00,,,0.00,VWS V14.00,2013-01-30 17:11:00,
2013-01-30 11:16:00,21.4,15.9,29.94,WNW,295,4.0,20.0,79,0.00,,,0.00,VWS V14.00,2013-01-30 17:16:00,
2013-01-30 11:21:00,22.1,17.2,29.94,WNW,292,6.0,20.0,81,0.00,,,0.00,VWS V14.00,2013-01-30 17:21:00,
2013-01-30 11:26:00,21.9,15.8,29.94,NW,310,3.0,20.0,77,0.00,,,0.00,VWS V14.00,2013-01-30 17:26:00,
2013-01-30 11:31:00,22.0,15.9,29.94,NNW,344,7.0,20.0,77,0.00,,,0.00,VWS V14.00,2013-01-30 17:31:00,
2013-01-30 11:36:00,22.7,17.5,29.94,NE,49,1.0,15.0,80,0.00,,,0.00,VWS V14.00,2013-01-30 17:36:00,
2013-01-30 11:41:00,22.6,16.5,29.94,NW,323,4.0,15.0,77,0.00,,,0.00,VWS V14.00,2013-01-30 17:41:00,
2013-01-30 11:46:00,22.4,16.0,29.94,NW,309,9.0,17.0,76,0.00,,,0.00,VWS V14.00,2013-01-30 17:46:00,
2013-01-30 11:51:00,22.4,16.9,29.94,WNW,291,0.0,17.0,79,0.00,,,0.00,VWS V14.00,2013-01-30 17:51:00,
2013-01-30 11:56:00,22.1,16.9,29.94,NNW,340,4.0,23.0,80,0.00,,,0.00,VWS V14.00,2013-01-30 17:56:00,
2013-01-30 12:01:00,21.5,16.6,29.94,WNW,299,15.0,23.0,81,0.00,,,0.00,VWS V14.00,2013-01-30 18:01:00,
2013-01-30 12:06:00,21.6,17.5,29.94,NW,305,4.0,17.0,84,0.00,,,0.00,VWS V14.00,2013-01-30 18:06:00,
2013-01-30 12:11:00,21.5,16.9,29.94,NW,309,14.0,17.0,82,0.00,,,0.00,VWS V14.00,2013-01-30 18:11:00,
2013-01-30 12:16:00,21.5,16.3,29.94,NW,309,10.0,18.0,80,0.00,,,0.00,VWS V14.00,2013-01-30 18:16:00,
2013-01-30 12:21:00,22.0,16.8,29.94,WNW,302,12.0,18.0,80,0.00,,,0.00,VWS V14.00,2013-01-30 18:21:00,
2013-01-30 12:26:00,22.1,16.0,29.94,WNW,294,10.0,18.0,77,0.00,,,0.00,VWS V14.00,2013-01-30 18:26:00,
2013-01-30 12:31:00,22.1,16.0,29.94,NW,321,6.0,18.0,77,0.00,,,0.00,VWS V14.00,2013-01-30 18:31:00,
2013-01-30 12:36:00,22.4,16.6,29.94,WNW,290,11.0,17.0,78,0.00,,,0.00,VWS V14.00,2013-01-30 18:36:00,
2013-01-30 12:41:00,22.3,15.6,29.94,WNW,286,4.0,17.0,75,0.00,,,0.00,VWS V14.00,2013-01-30 18:41:00,
2013-01-30 12:46:00,22.0,15.6,29.94,North,351,12.0,17.0,76,0.00,,,0.00,VWS V14.00,2013-01-30 18:46:00,
2013-01-30 12:51:00,22.0,15.6,29.94,West,272,4.0,17.0,76,0.00,,,0.00,VWS V14.00,2013-01-30 18:51:00,
2013-01-30 12:56:00,21.9,14.9,29.94,NW,304,9.0,17.0,74,0.00,,,0.00,VWS V14.00,2013-01-30 18:56:00,
2013-01-30 13:01:00,22.0,15.0,29.94,NNW,333,9.0,18.0,74,0.00,,,0.00,VWS V14.00,2013-01-30 19:01:00,
2013-01-30 13:06:00,22.1,15.7,29.94,WNW,294,10.0,15.0,76,0.00,,,0.00,VWS V14.00,2013-01-30 19:06:00,
2013-01-30 13:11:00,21.9,14.3,29.94,West,265,5.0,19.0,72,0.00,,,0.00,VWS V14.00,2013-01-30 19:11:00,
2013-01-30 13:16:00,21.8,14.2,29.94,NNE,13,1.0,19.0,72,0.00,,,0.00,VWS V14.00,2013-01-30 19:16:00,
2013-01-30 13:21:00,22.3,15.6,29.93,WNW,303,6.0,19.0,75,0.00,,,0.00,VWS V14.00,2013-01-30 19:21:00,
2013-01-30 13:26:00,22.2,14.2,29.93,North,5,12.0,19.0,71,0.00,,,0.00,VWS V14.00,2013-01-30 19:26:00,
2013-01-30 13:31:00,22.3,14.7,29.93,NNW,342,6.0,19.0,72,0.00,,,0.00,VWS V14.00,2013-01-30 19:31:00,
2013-01-30 13:36:00,22.8,16.4,29.93,West,266,10.0,14.0,76,0.00,,,0.00,VWS V14.00,2013-01-30 19:36:00,
2013-01-30 13:41:00,22.7,15.1,29.93,NW,315,11.0,17.0,72,0.00,,,0.00,VWS V14.00,2013-01-30 19:41:00,
2013-01-30 13:45:00,22.4,14.8,29.93,NW,313,6.0,17.0,72,0.00,,,0.00,VWS V14.00,2013-01-30 19:45:00,
2013-01-30 13:50:00,22.5,15.8,29.93,West,276,10.0,17.0,75,0.00,,,0.00,VWS V14.00,2013-01-30 19:50:00,
2013-01-30 13:55:00,22.5,15.2,29.93,NW,319,10.0,17.0,73,0.00,,,0.00,VWS V14.00,2013-01-30 19:55:00,
2013-01-30 14:00:00,22.2,14.6,29.93,NNW,327,1.0,17.0,72,0.00,,,0.00,VWS V14.00,2013-01-30 20:00:00,
2013-01-30 14:05:00,22.8,17.0,29.93,NW,319,1.0,1.0,78,0.00,,,0.00,VWS V14.00,2013-01-30 20:05:00,
2013-01-30 14:10:00,22.8,16.1,29.93,NW,314,0.0,13.0,75,0.00,,,0.00,VWS V14.00,2013-01-30 20:10:00,
2013-01-30 14:15:00,22.6,15.3,29.93,NW,317,5.0,17.0,73,0.00,,,0.00,VWS V14.00,2013-01-30 20:15:00,
2013-01-30 14:20:00,22.5,16.1,29.93,NNW,337,8.0,17.0,76,0.00,,,0.00,VWS V14.00,2013-01-30 20:20:00,
2013-01-30 14:25:00,22.2,15.2,29.93,NW,304,4.0,17.0,74,0.00,,,0.00,VWS V14.00,2013-01-30 20:25:00,
2013-01-30 14:30:00,21.9,14.6,29.92,NW,318,0.0,17.0,73,0.00,,,0.00,VWS V14.00,2013-01-30 20:30:00,
2013-01-30 14:35:00,22.0,15.3,29.93,NW,304,13.0,13.0,75,0.00,,,0.00,VWS V14.00,2013-01-30 20:35:00,
2013-01-30 14:40:00,22.1,14.5,29.92,WNW,292,5.0,15.0,72,0.00,,,0.00,VWS V14.00,2013-01-30 20:40:00,
2013-01-30 14:45:00,22.0,13.7,29.93,WNW,283,7.0,15.0,70,0.00,,,0.00,VWS V14.00,2013-01-30 20:45:00,
2013-01-30 14:50:00,22.0,14.4,29.93,NW,309,4.0,16.0,72,0.00,,,0.00,VWS V14.00,2013-01-30 20:50:00,
2013-01-30 14:55:00,22.0,14.7,29.93,NW,325,5.0,17.0,73,0.00,,,0.00,VWS V14.00,2013-01-30 20:55:00,
2013-01-30 15:00:00,21.8,13.9,29.93,NW,318,5.0,17.0,71,0.00,,,0.00,VWS V14.00,2013-01-30 21:00:00,
2013-01-30 15:05:00,21.7,13.4,29.93,NW,320,9.0,14.0,70,0.00,,,0.00,VWS V14.00,2013-01-30 21:05:00,
2013-01-30 15:10:00,22.0,15.3,29.93,WNW,292,12.0,17.0,75,0.00,,,0.00,VWS V14.00,2013-01-30 21:10:00,
2013-01-30 15:15:00,21.9,14.0,29.93,West,281,9.0,17.0,71,0.00,,,0.00,VWS V14.00,2013-01-30 21:15:00,
2013-01-30 15:20:00,21.8,13.5,29.93,WNW,295,14.0,17.0,70,0.00,,,0.00,VWS V14.00,2013-01-30 21:20:00,
2013-01-30 15:25:00,22.2,15.8,29.93,NW,319,0.0,17.0,76,0.00,,,0.00,VWS V14.00,2013-01-30 21:25:00,
2013-01-30 15:30:00,22.2,14.6,29.93,NW,320,9.0,17.0,72,0.00,,,0.00,VWS V14.00,2013-01-30 21:30:00,
2013-01-30 15:35:00,22.1,14.1,29.93,West,278,6.0,6.0,71,0.00,,,0.00,VWS V14.00,2013-01-30 21:35:00,
2013-01-30 15:40:00,22.4,15.7,29.94,WNW,294,6.0,15.0,75,0.00,,,0.00,VWS V14.00,2013-01-30 21:40:00,
2013-01-30 15:45:00,22.5,15.2,29.94,WNW,296,0.0,15.0,73,0.00,,,0.00,VWS V14.00,2013-01-30 21:45:00,
2013-01-30 15:50:00,22.3,14.0,29.94,West,278,9.0,15.0,70,0.00,,,0.00,VWS V14.00,2013-01-30 21:50:00,
2013-01-30 15:55:00,22.4,15.4,29.94,WNW,296,0.0,15.0,74,0.00,,,0.00,VWS V14.00,2013-01-30 21:55:00,
2013-01-30 16:00:00,22.7,15.7,29.94,WNW,298,0.0,15.0,74,0.00,,,0.00,VWS V14.00,2013-01-30 22:00:00,
2013-01-30 16:05:00,22.7,14.7,29.94,WNW,292,0.0,1.0,71,0.00,,,0.00,VWS V14.00,2013-01-30 22:05:00,
2013-01-30 16:10:00,22.8,15.5,29.94,WNW,291,0.0,12.0,73,0.00,,,0.00,VWS V14.00,2013-01-30 22:10:00,
2013-01-30 16:15:00,23.0,15.3,29.94,West,277,10.0,13.0,72,0.00,,,0.00,VWS V14.00,2013-01-30 22:15:00,
2013-01-30 16:20:00,22.9,14.3,29.94,WNW,282,8.0,13.0,69,0.00,,,0.00,VWS V14.00,2013-01-30 22:20:00,
2013-01-30 16:25:00,22.9,14.6,29.94,WNW,284,7.0,14.0,70,0.00,,,0.00,VWS V14.00,2013-01-30 22:25:00,
2013-01-30 16:30:00,23.0,16.0,29.94,WNW,298,7.0,15.0,74,0.00,,,0.00,VWS V14.00,2013-01-30 22:30:00,
2013-01-30 16:35:00,22.7,14.4,29.94,West,267,0.0,0.0,70,0.00,,,0.00,VWS V14.00,2013-01-30 22:35:00,
2013-01-30 16:40:00,22.5,14.2,29.94,WNW,284,1.0,1.0,70,0.00,,,0.00,VWS V14.00,2013-01-30 22:40:00,
2013-01-30 16:45:00,22.9,16.8,29.94,WNW,283,0.0,1.0,77,0.00,,,0.00,VWS V14.00,2013-01-30 22:45:00,
2013-01-30 16:50:00,22.8,15.1,29.94,WNW,286,0.0,1.0,72,0.00,,,0.00,VWS V14.00,2013-01-30 22:50:00,
2013-01-30 16:55:00,22.6,14.3,29.94,West,281,1.0,1.0,70,0.00,,,0.00,VWS V14.00,2013-01-30 22:55:00,
2013-01-30 17:00:00,22.9,16.2,29.94,WNW,295,0.0,2.0,75,0.00,,,0.00,VWS V14.00,2013-01-30 23:00:00,
2013-01-30 17:05:00,23.1,16.1,29.94,West,263,0.0,1.0,74,0.00,,,0.00,VWS V14.00,2013-01-30 23:05:00,
2013-01-30 17:10:00,22.8,14.5,29.94,WSW,242,0.0,1.0,70,0.00,,,0.00,VWS V14.00,2013-01-30 23:10:00,
2013-01-30 17:15:00,22.5,14.2,29.94,West,280,0.0,1.0,70,0.00,,,0.00,VWS V14.00,2013-01-30 23:15:00,
2013-01-30 17:20:00,22.4,15.1,29.94,West,271,0.0,1.0,73,0.00,,,0.00,VWS V14.00,2013-01-30 23:20:00,
2013-01-30 17:25:00,22.2,14.2,29.94,West,271,0.0,1.0,71,0.00,,,0.00,VWS V14.00,2013-01-30 23:25:00,
2013-01-30 17:30:00,22.1,14.1,29.94,West,268,0.0,1.0,71,0.00,,,0.00,VWS V14.00,2013-01-30 23:30:00,
2013-01-30 17:35:00,22.0,14.4,29.94,West,268,0.0,0.0,72,0.00,,,0.00,VWS V14.00,2013-01-30 23:35:00,
2013-01-30 17:40:00,21.8,14.2,29.94,West,268,0.0,0.0,72,0.00,,,0.00,VWS V14.00,2013-01-30 23:40:00,
2013-01-30 17:45:00,21.6,14.0,29.94,West,265,0.0,0.0,72,0.00,,,0.00,VWS V14.00,2013-01-30 23:45:00,
2013-01-30 17:50:00,21.5,13.9,29.94,West,264,0.0,1.0,72,0.00,,,0.00,VWS V14.00,2013-01-30 23:50:00,
2013-01-30 17:55:00,21.3,13.7,29.94,West,264,0.0,1.0,72,0.00,,,0.00,VWS V14.00,2013-01-30 23:55:00,
2013-01-30 18:00:00,21.2,13.6,29.94,West,264,0.0,1.0,72,0.00,,,0.00,VWS V14.00,2013-01-31 00:00:00,
2013-01-30 18:05:00,21.1,14.1,29.94,West,263,0.0,0.0,74,0.00,,,0.00,VWS V14.00,2013-01-31 00:05:00,
2013-01-30 18:10:00,21.0,14.0,29.95,West,263,0.0,0.0,74,0.00,,,0.00,VWS V14.00,2013-01-31 00:10:00,
2013-01-30 18:15:00,20.8,13.8,29.94,West,263,0.0,0.0,74,0.00,,,0.00,VWS V14.00,2013-01-31 00:15:00,
2013-01-30 18:20:00,20.6,13.9,29.95,West,263,0.0,0.0,75,0.00,,,0.00,VWS V14.00,2013-01-31 00:20:00,
2013-01-30 18:25:00,20.5,13.9,29.95,West,263,0.0,0.0,75,0.00,,,0.00,VWS V14.00,2013-01-31 00:25:00,
2013-01-30 18:30:00,20.3,13.7,29.95,West,263,0.0,0.0,75,0.00,,,0.00,VWS V14.00,2013-01-31 00:30:00,
2013-01-30 18:35:00,20.1,13.8,29.95,West,264,0.0,0.0,76,0.00,,,0.00,VWS V14.00,2013-01-31 00:35:00,
2013-01-30 18:40:00,19.9,13.6,29.95,West,264,0.0,0.0,76,0.00,,,0.00,VWS V14.00,2013-01-31 00:40:00,
2013-01-30 18:45:00,19.8,13.8,29.95,West,264,0.0,0.0,77,0.00,,,0.00,VWS V14.00,2013-01-31 00:45:00,
2013-01-30 18:50:00,19.7,13.7,29.95,West,264,0.0,0.0,77,0.00,,,0.00,VWS V14.00,2013-01-31 00:50:00,
2013-01-30 18:55:00,19.7,14.0,29.95,West,264,0.0,0.0,78,0.00,,,0.00,VWS V14.00,2013-01-31 00:55:00,
2013-01-30 19:00:00,19.7,14.0,29.95,West,264,0.0,0.0,78,0.00,,,0.00,VWS V14.00,2013-01-31 01:00:00,
2013-01-30 19:05:00,19.6,14.2,29.96,West,263,0.0,0.0,79,0.00,,,0.00,VWS V14.00,2013-01-31 01:05:00,
2013-01-30 19:09:00,19.4,13.7,29.96,West,263,0.0,0.0,78,0.00,,,0.00,VWS V14.00,2013-01-31 01:09:00,
2013-01-30 19:14:00,19.2,13.5,29.96,West,263,0.0,0.0,78,0.00,,,0.00,VWS V14.00,2013-01-31 01:14:00,
2013-01-30 19:19:00,19.1,13.7,29.96,West,263,0.0,0.0,79,0.00,,,0.00,VWS V14.00,2013-01-31 01:19:00,
2013-01-30 19:24:00,18.9,13.5,29.95,West,263,0.0,0.0,79,0.00,,,0.00,VWS V14.00,2013-01-31 01:24:00,
2013-01-30 19:29:00,18.7,13.3,29.95,West,263,0.0,0.0,79,0.00,,,0.00,VWS V14.00,2013-01-31 01:29:00,
2013-01-30 19:34:00,18.5,13.1,29.95,West,263,0.0,0.0,79,0.00,,,0.00,VWS V14.00,2013-01-31 01:34:00,
2013-01-30 19:39:00,18.4,13.3,29.95,West,263,0.0,0.0,80,0.00,,,0.00,VWS V14.00,2013-01-31 01:39:00,
2013-01-30 19:44:00,18.3,13.2,29.95,West,263,0.0,0.0,80,0.00,,,0.00,VWS V14.00,2013-01-31 01:44:00,
2013-01-30 19:49:00,18.2,13.1,29.95,West,263,0.0,0.0,80,0.00,,,0.00,VWS V14.00,2013-01-31 01:49:00,
2013-01-30 19:54:00,18.1,13.0,29.96,West,263,0.0,0.0,80,0.00,,,0.00,VWS V14.00,2013-01-31 01:54:00,
2013-01-30 19:59:00,18.0,12.9,29.96,West,263,0.0,0.0,80,0.00,,,0.00,VWS V14.00,2013-01-31 01:59:00,
2013-01-30 20:04:00,17.8,12.7,29.96,West,263,0.0,0.0,80,0.00,,,0.00,VWS V14.00,2013-01-31 02:04:00,
2013-01-30 20:09:00,17.6,12.5,29.96,West,263,0.0,0.0,80,0.00,,,0.00,VWS V14.00,2013-01-31 02:09:00,
2013-01-30 20:14:00,17.4,12.3,29.96,West,263,0.0,0.0,80,0.00,,,0.00,VWS V14.00,2013-01-31 02:14:00,
2013-01-30 20:19:00,17.3,12.5,29.96,West,263,0.0,0.0,81,0.00,,,0.00,VWS V14.00,2013-01-31 02:19:00,
2013-01-30 20:24:00,17.1,12.3,29.96,West,263,0.0,0.0,81,0.00,,,0.00,VWS V14.00,2013-01-31 02:24:00,
2013-01-30 20:29:00,16.9,12.1,29.96,West,263,0.0,0.0,81,0.00,,,0.00,VWS V14.00,2013-01-31 02:29:00,
2013-01-30 20:34:00,16.8,12.0,29.96,West,263,0.0,0.0,81,0.00,,,0.00,VWS V14.00,2013-01-31 02:34:00,
2013-01-30 20:39:00,16.7,12.2,29.96,West,263,0.0,0.0,82,0.00,,,0.00,VWS V14.00,2013-01-31 02:39:00,
2013-01-30 20:44:00,16.5,12.0,29.96,West,263,0.0,0.0,82,0.00,,,0.00,VWS V14.00,2013-01-31 02:44:00,
2013-01-30 20:49:00,16.4,11.9,29.95,West,263,0.0,0.0,82,0.00,,,0.00,VWS V14.00,2013-01-31 02:49:00,
2013-01-30 20:54:00,16.3,12.1,29.96,West,263,0.0,0.0,83,0.00,,,0.00,VWS V14.00,2013-01-31 02:54:00,
2013-01-30 20:59:00,16.3,12.1,29.95,West,263,0.0,0.0,83,0.00,,,0.00,VWS V14.00,2013-01-31 02:59:00,
2013-01-30 21:04:00,16.3,12.1,29.96,West,263,0.0,0.0,83,0.00,,,0.00,VWS V14.00,2013-01-31 03:04:00,
2013-01-30 21:09:00,16.3,12.3,29.96,West,263,0.0,0.0,84,0.00,,,0.00,VWS V14.00,2013-01-31 03:09:00,
2013-01-30 21:14:00,16.6,12.9,29.96,West,263,0.0,0.0,85,0.00,,,0.00,VWS V14.00,2013-01-31 03:14:00,
2013-01-30 21:19:00,16.5,12.5,29.96,West,263,0.0,0.0,84,0.00,,,0.00,VWS V14.00,2013-01-31 03:19:00,
2013-01-30 21:24:00,16.5,12.8,29.96,West,263,0.0,0.0,85,0.00,,,0.00,VWS V14.00,2013-01-31 03:24:00,
2013-01-30 21:29:00,16.4,12.7,29.97,West,263,0.0,0.0,85,0.00,,,0.00,VWS V14.00,2013-01-31 03:29:00,
2013-01-30 21:34:00,16.2,12.2,29.97,West,263,0.0,0.0,84,0.00,,,0.00,VWS V14.00,2013-01-31 03:34:00,
2013-01-30 21:39:00,16.0,11.8,29.97,West,263,0.0,0.0,83,0.00,,,0.00,VWS V14.00,2013-01-31 03:39:00,
2013-01-30 21:44:00,15.6,11.4,29.97,West,263,0.0,0.0,83,0.00,,,0.00,VWS V14.00,2013-01-31 03:44:00,
2013-01-30 21:49:00,15.3,11.1,29.98,West,263,0.0,0.0,83,0.00,,,0.00,VWS V14.00,2013-01-31 03:49:00,
2013-01-30 21:54:00,14.9,10.7,29.98,West,263,0.0,0.0,83,0.00,,,0.00,VWS V14.00,2013-01-31 03:54:00,
2013-01-30 21:59:00,14.7,10.5,29.98,West,263,0.0,0.0,83,0.00,,,0.00,VWS V14.00,2013-01-31 03:59:00,
2013-01-30 22:04:00,14.5,10.3,29.98,West,263,0.0,0.0,83,0.00,,,0.00,VWS V14.00,2013-01-31 04:04:00,
2013-01-30 22:09:00,14.6,10.7,29.98,West,270,0.0,0.0,84,0.00,,,0.00,VWS V14.00,2013-01-31 04:09:00,
2013-01-30 22:14:00,14.6,10.7,29.98,West,269,0.0,0.0,84,0.00,,,0.00,VWS V14.00,2013-01-31 04:14:00,
2013-01-30 22:19:00,14.7,10.8,29.98,West,271,0.0,0.0,84,0.00,,,0.00,VWS V14.00,2013-01-31 04:19:00,
2013-01-30 22:24:00,15.2,11.5,29.99,WNW,292,0.0,0.0,85,0.00,,,0.00,VWS V14.00,2013-01-31 04:24:00,
2013-01-30 22:29:00,15.6,12.2,29.99,WNW,292,0.0,0.0,86,0.00,,,0.00,VWS V14.00,2013-01-31 04:29:00,
2013-01-30 22:34:00,15.8,12.1,29.99,WNW,292,0.0,0.0,85,0.00,,,0.00,VWS V14.00,2013-01-31 04:34:00,
2013-01-30 22:39:00,16.0,12.3,30.00,WNW,292,0.0,0.0,85,0.00,,,0.00,VWS V14.00,2013-01-31 04:39:00,
2013-01-30 22:44:00,16.6,13.1,30.00,WNW,292,0.0,0.0,86,0.00,,,0.00,VWS V14.00,2013-01-31 04:44:00,
2013-01-30 22:49:00,16.6,13.1,30.00,WNW,292,0.0,0.0,86,0.00,,,0.00,VWS V14.00,2013-01-31 04:49:00,
2013-01-30 22:54:00,16.4,12.7,30.00,WNW,292,0.0,0.0,85,0.00,,,0.00,VWS V14.00,2013-01-31 04:54:00,
2013-01-30 22:59:00,16.6,13.1,30.00,NW,323,0.0,0.0,86,0.00,,,0.00,VWS V14.00,2013-01-31 04:59:00,
2013-01-30 23:00:00,16.7,13.2,30.00,NW,322,0.0,0.0,86,0.00,,,0.00,VWS V14.00,2013-01-31 05:00:00,
2013-01-30 23:01:00,16.7,13.2,30.00,NW,322,0.0,0.0,86,0.00,,,0.00,VWS V14.00,2013-01-31 05:01:00,
2013-01-30 23:06:00,16.7,13.0,30.00,NW,323,0.0,0.0,85,0.00,,,0.00,VWS V14.00,2013-01-31 05:06:00,
2013-01-30 23:11:00,16.5,12.8,30.00,NW,325,0.0,0.0,85,0.00,,,0.00,VWS V14.00,2013-01-31 05:11:00,
2013-01-30 23:16:00,16.4,12.4,30.01,NNW,327,0.0,0.0,84,0.00,,,0.00,VWS V14.00,2013-01-31 05:16:00,
2013-01-30 23:21:00,16.4,12.4,30.01,NNW,334,0.0,0.0,84,0.00,,,0.00,VWS V14.00,2013-01-31 05:21:00,
2013-01-30 23:26:00,16.3,12.3,30.01,NNW,341,0.0,0.0,84,0.00,,,0.00,VWS V14.00,2013-01-31 05:26:00,
2013-01-30 23:31:00,16.3,12.1,30.02,NNW,348,0.0,0.0,83,0.00,,,0.00,VWS V14.00,2013-01-31 05:31:00,
2013-01-30 23:36:00,16.4,12.1,30.01,NNW,336,0.0,0.0,83,0.00,,,0.00,VWS V14.00,2013-01-31 05:36:00,
2013-01-30 23:41:00,16.4,11.9,30.01,NNW,336,0.0,0.0,82,0.00,,,0.00,VWS V14.00,2013-01-31 05:41:00,
2013-01-30 23:46:00,16.4,11.9,30.01,NNW,336,0.0,0.0,82,0.00,,,0.00,VWS V14.00,2013-01-31 05:46:00,
2013-01-30 23:51:00,16.4,11.9,30.00,NNW,336,0.0,0.0,82,0.00,,,0.00,VWS V14.00,2013-01-31 05:51:00,
2013-01-30 23:56:00,16.5,12.0,30.01,NNW,336,0.0,0.0,82,0.00,,,0.00,VWS V14.00,2013-01-31 05:56:00,